Regional Weather Roundup
Issued by NWS Grand Forks, ND

Home | Current Version | Previous Version | Graphics & Text | Print | Product List | Glossary On
Versions: 1 2 3 4 5 6 7 8 9 10 11 12 13 14 15 16 17 18 19 20 21 22 23 24 25 26 27 28 29 30 31 32 33 34 35 36 37 38 39 40 41 42 43 44 45 46 47 48 49 50
000
ASUS43 KFGF 181410
RWRFGF
PRAIRIE TO PINES  WEATHER ROUNDUP
NATIONAL WEATHER SERVICE EASTERN NORTH DAKOTA/GRAND FORKS ND
900 AM CDT SAT APR 18 2015

 **SATELLITE DATA USED TO AUGMENT SKY COVER AT AUTOMATED STATIONS**
 *****  WEATHER ACROSS EASTERN NORTH DAKOTA  *****

CITY           SKY/WX    TMP DP  RH WIND       PRES   REMARKS
GRAND FORKS    MOSUNNY   44  31  60 SE12      30.12F
GRAND FRKS AFB SUNNY     42  30  62 SE10      30.12F
GRAND FRKS NWS   N/A     43 N/A N/A SE6         N/A
DEVILS LAKE    SUNNY     43  30  61 SE12      30.08F
FARGO          SUNNY     49  29  46 E6        30.08F
WAHPETON ARPT  MOSUNNY   54  27  35 SE13      30.07F
$$

 ***** WEATHER ACROSS CENTRAL AND WESTERN NORTH DAKOTA  *****

CITY           SKY/WX    TMP DP  RH WIND       PRES   REMARKS
BISMARCK       MOSUNNY   45  31  58 E7        30.04F
MINOT          SUNNY     42  29  59 E6        30.02F
JAMESTOWN      MOSUNNY   50  29  44 E13       30.05F
MINOT AFB      SUNNY     41  31  68 SE8       30.02F
GARRISON         N/A     46  29  51 SE9       30.03F
WILLISTON      SUNNY     49  29  46 S8        29.97F
DICKINSON      SUNNY     45  31  58 S5        29.98F
HETTINGER      PTSUNNY   44  36  73 CALM      30.02S
$$

 *****  OTHER AIRPORT OBSERVATIONS IN OUR AREA  *****

CITY           SKY/WX    TMP DP  RH WIND       PRES   REMARKS
WALHALLA       FAIR      41  34  75 SE17      30.14F
GRAFTON AIRPOR FAIR      43  32  65 SE12      30.15S
VALLEY CITY AR FAIR      46  28  49 E9        30.07F
CANDO          FAIR      41  32  70 SE14      30.09F
CAVALIER APRT  FAIR      41  32  70 SE9       30.14F
GWINNER        SUNNY     50  28  43 E12       30.07F
ROLLA          FAIR      41  30  65 SE14      30.08F
 ***** THE ABOVE OBSERVATIONS ARE NON NWS ARE NOT QUALITY
       CONTROLLED AND MAY MIS-REPORT RAIN FOR SNOW...
$$

  *****  WEATHER ACROSS NORTHERN MINNESOTA  *****

CITY           SKY/WX    TMP DP  RH WIND       PRES   REMARKS
FLAG ISLAND    SUNNY     39  30  70 SE6       30.19F
WARROAD        SUNNY     41  34  75 E8        30.19F
ROSEAU         SUNNY     45  34  65 E12       30.17F
HALLOCK        SUNNY     45  30  57 SE15      30.14F
THF RVR FALLS  SUNNY     43  30  61 E15       30.15S
BAUDETTE       SUNNY     42  33  70 E13       30.19F
WASKISH        SUNNY     43  34  70 E12G21    30.17F
CROOKSTON      SUNNY     45  32  61 E15       30.13F
STEPHEN NDAWN    N/A     45  34  65 SE20        N/A
GREENBUSH NDAW   N/A     45  32  61 SE16        N/A
$$
  *****  WEATHER ACROSS CENTRAL AND WEST MINNESOTA  *****

CITY           SKY/WX    TMP DP  RH WIND       PRES   REMARKS
FOSSTON        SUNNY     45  30  57 E12       30.13S
BEMIDJI        SUNNY     43  31  63 E14G20    30.15F
PARK RAPIDS    MOSUNNY   48  30  49 E12G23    30.13S
ELBOW LAKE     FAIR      51  31  46 E20G25    30.06S
WADENA         MOSUNNY   46  30  53 E12       30.10F
DETROIT LAKES  MOSUNNY   48  32  53 SE14      30.11F
MOORHEAD       SUNNY     54  28  37 SE8       30.09F
FERGUS FALLS   MOSUNNY   52  25  35 E12       30.08F
MORRIS MN      MOSUNNY   55  28  35 E22       30.05S
STAPLES        MOSUNNY   48  28  46 E8        30.12S
$$
  *****  WEATHER ELSEWHERE ACROSS MINNESOTA  *****

CITY           SKY/WX    TMP DP  RH WIND       PRES   REMARKS
DULUTH         MOSUNNY   41  31  67 E17G33    30.21S
INTRNTL FALLS  SUNNY     42  32  67 SE14      30.22S
ELY            SUNNY     39  28  65 E7        30.22F
CLOQUET        SUNNY     43  30  61 E17G28    30.19F
WHEATON        MOSUNNY   48  28  46 SE3       30.08F
BRAINERD       SUNNY     46  31  55 E10G18    30.14F
HIBBING        SUNNY     43  29  57 E10       30.21R
ALEXANDRIA     MOSUNNY   52  28  39 E18       30.09S
SAINT CLOUD    SUNNY     50  32  50 E9        30.11S
MINNEAPOLIS    PTSUNNY   56  31  38 E15       30.09F
$$

  *****  WEATHER ACROSS SOUTH DAKOTA  *****

CITY           SKY/WX    TMP DP  RH WIND       PRES   REMARKS
SIOUX FALLS    CLOUDY    56  36  47 E8        29.99F
BROOKINGS      CLOUDY    61  25  25 E14G21    30.01F
WATERTOWN      PTSUNNY   55  28  35 E7        30.02F
HURON          CLOUDY    58  32  37 E6        29.98F
SISSETON         N/A     52  28  39 SE7       30.05F
ABERDEEN       CLOUDY    50  31  48 E6        30.02F
MITCHELL       CLOUDY    58  31  35 E12       29.96F
PIERRE         LGT RAIN  50  34  54 E3        29.98S
MOBRIDGE       CLOUDY    53  28  38 SE9       29.99S
RAPID CITY     CLOUDY    48  46  93 NW7       29.99F
$$

  *****  SOME WEATHER IN NEARBY STATES *****

CITY           SKY/WX    TMP DP  RH WIND       PRES   REMARKS
GLASGOW MT     SUNNY     46  32  58 CALM      29.92S
GREAT FALLS MT PTSUNNY   43  32  65 N17       30.13R
CHEYENNE WY    CLOUDY    36  32  85 NW6       29.94S
SCOTTSBLUFF NE CLOUDY    44  32  62 W7        29.93S
OMAHA NE       CLOUDY    63  56  78 E10       29.91F
DES MOINES IA  CLOUDY    63  56  78 NE13      29.96F
DAVENPORT IA   MOSUNNY   64  50  60 E9        30.02S
CHICAGO IL     MOSUNNY   57  40  52 NE21G28   30.07R
EAU CLAIRE WI  MOSUNNY   53  32  44 E13G21    30.12S
LA CROSSE WI   SUNNY     59  33  37 E8G20     30.08S
$$

  *****  SOME NATIONAL WEATHER *****

CITY           SKY/WX    TMP DP  RH WIND       PRES   REMARKS
LA GUARDIA NY  MOSUNNY   66  44  45 NW5       29.99F
RALEIGH NC     PTSUNNY   69  63  81 NE3       30.01R
ATLANTA GA     CLOUDY    65  62  90 NE9       29.99F
NEW ORLEANS LA RAIN      71  69  93 S6        30.00R FOG
OKLAHOMA CITY  MOSUNNY   64  55  72 CALM      29.91S
ALBUQUERQUE NM PTSUNNY   42  28  57 NE6       30.01R
SALT LAKE CITY MOSUNNY   45  37  73 S3        30.04R
LOS ANGELES CA PTCLDY    57  47  69 CALM      30.01R
BOISE ID       SUNNY     45  33  63 CALM      30.10R
SEATTLE WA     CLEAR     48  37  65 N8        30.36R
$$

*** WEATHER ACROSS MANITOBA...SASKATCHEWAN AND ONTARIO ***
                ***ONTARIO***

CITY           SKY/WX    TMP DP  RH WIND       PRES   REMARKS
GERALDTON      PTSUNNY   36  28  75 NE7       30.27F
THUNDER BAY    SUNNY     43  32  65 SE3       30.27F
SIOUX LOOKOUT  MOSUNNY   41  32  70 S6        30.26S
TORONTO        MOSUNNY   66  41  39 NW25G33   29.96S
BIG TROUT LK   FOG       28  28 100 S5        30.28R VSB 1/8 WCI  23
PICKLE LAKE    MOSUNNY   37  34  87 W6        30.27S
DRYDEN         SUNNY     41  32  70 SE7       30.24F
KENORA         MOSUNNY   43  32  65 E12       30.21F
$$
                *** MANITOBA***

CITY           SKY/WX    TMP DP  RH WIND       PRES   REMARKS
BRANDON        MOSUNNY   39  32  75 SE10      30.06F
DAUPHIN        SUNNY     46  34  61 VRB3      30.01F
ISLAND LAKE    MOSUNNY   36  32  87 SE9       30.20F
PILOT MOUND      N/A     43  34  70 SE17        N/A
THE PAS        CLOUDY    39  34  81 SE17G24   29.91F
THOMPSON       CLOUDY    37  32  81 VRB2      30.06F
WINNIPEG       MOSUNNY   45  30  57 SE18G25   30.16F
CHURCHILL      PTSUNNY   18  12  79 NE8       30.28F WCI   7
GILLAM         FOG       30  30 100 E8        30.19F VSB 1/8 WCI  23
$$
                ***SASKATCHEWAN***

CITY           SKY/WX    TMP DP  RH WIND       PRES   REMARKS
ESTEVAN        MOSUNNY   50  30  46 S13G21    29.95F
KINDERSLEY     MOSUNNY   41  34  75 NW20G28   30.06R
LLOYDMINSTER   CLOUDY    37  34  87 W20       30.02R
PRINCE ALBERT  MOSUNNY   46  34  61 W14       29.83R
REGINA         PTSUNNY   46  34  61 SW10      29.92R
YORKTON        SUNNY     43  32  65 S21G28    29.87F
N. BATTLEFORD  CLOUDY    41  36  81 NW17G24   29.99R
LA RONGE       LGT RAIN  39  37  93 E6        29.86F FOG
SASKATOON      PTSUNNY   43  37  81 NW20G30   29.95R
SWIFT CURRENT  PTSUNNY   45  36  70 NW22G28   30.01R
$$
NOTE: THESE ARE AUTOMATED STATIONS WITH LIMITED QUALITY CONTROL
      "FAIR" INDICATES FEW OR NO CLOUDS BELOW 12,000 FEET WITH NO
      SIGNIFICANT WEATHER AND/OR OBSTRUCTIONS TO VISIBILITY.
      SKY/WX - SKY CONDITION AND SIGNIFICANT WEATHER.
      TMP - AIR TEMPERATURE.    DP   - DEWPOINT TEMPERATURE.
      RH  - RELATIVE HUMIDITY.  PRES - PRESSURE.
      HX  - HEAT INDEX.         WCI  - WIND CHILL INDEX.
$



USA.gov is the U.S. government's official web portal to all federal, state and local government web resources and services.